Caro, MI

11:06 PM EDT on May 24, 2018 (GMT -0400)
Caro

Weather History for KCFS - April, 2014

Change the Weather History Date:

Monday, April 7, 2014

  Actual Average (WUND) Record (WUND)
Temperature  
Mean Temperature 42 °F -  
Max Temperature 55 °F - - (-1)
Min Temperature 30 °F - - (-1)
Degree Days  
Heating Degree Days 22    
Moisture  
Dew Point 28 °F    
Average Humidity 58    
Maximum Humidity 91    
Minimum Humidity 32    
Precipitation  
Precipitation 0.00 in - - ()
Sea Level Pressure  
Sea Level Pressure 29.79 in    
Wind  
Wind Speed 2 mph (NE)    
Max Wind Speed 9 mph    
Max Gust Speed -    
Visibility 10 miles    
Events Rain    
Averages and records for this station are not official NWS values.
T = Trace of Precipitation, MM = Missing Value Source: NWS Daily Summary

Daily Weather History Graph

Daily Weather History Graph

Search for Another Location

Airport or City:

Astronomy

Apr. 07, 2014 Rise Set
Actual Time 7:04 AM EDT 8:07 PM EDT
Civil Twilight 6:35 AM EDT 8:36 PM EDT
Nautical Twilight 6:00 AM EDT 9:11 PM EDT
Astronomical Twilight 5:24 AM EDT 9:48 PM EDT
Moon 12:55 PM EDT (4/7) 2:48 AM EDT (4/7)
Length of Visible Light 14h 01m
Length of Day
13h 02m
First Quarter, 53% of the Moon is Illuminated
Apr 7
First Quarter
Apr 15
Full
Apr 22
Last Quarter
Apr 29
New
May 6
First Quarter

Hourly Weather History & Observations

Time (EDT) Temp. Windchill Dew Point Humidity Pressure Visibility Wind Dir Wind Speed Gust Speed Precip Events Conditions
12:15 AM 41.0 °F - 24.1 °F 51% 30.03 in 10.0 mi Calm Calm - N/A   Clear
12:35 AM 41.9 °F - 23.7 °F 49% 30.02 in 10.0 mi Calm Calm - N/A   Clear
12:55 AM 40.5 °F 38.4 °F 24.6 °F 53% 30.00 in 10.0 mi SE 3.5 mph - N/A   Clear
1:15 AM 39.9 °F - 24.4 °F 54% 30.02 in 10.0 mi Calm Calm - N/A   Clear
1:35 AM 40.3 °F 38.2 °F 24.8 °F 54% 30.02 in 10.0 mi SSE 3.5 mph - N/A   Clear
1:55 AM 40.8 °F 38.8 °F 25.3 °F 54% 30.00 in 10.0 mi South 3.5 mph - N/A   Clear
2:15 AM 40.8 °F - 25.5 °F 55% 30.00 in 10.0 mi Calm Calm - N/A   Clear
2:35 AM 37.0 °F - 26.6 °F 66% 30.00 in 10.0 mi Calm Calm - N/A   Clear
2:54 AM 37.6 °F - 26.6 °F 65% 29.99 in 10.0 mi Calm Calm - N/A   Clear
3:15 AM 38.3 °F - 25.9 °F 61% 29.97 in 10.0 mi Calm Calm - N/A   Clear
3:35 AM 37.0 °F - 26.4 °F 65% 29.96 in 10.0 mi Calm Calm - N/A   Clear
3:54 AM 37.2 °F - 26.2 °F 65% 29.96 in 10.0 mi Calm Calm - N/A   Scattered Clouds
4:15 AM 36.0 °F - 25.9 °F 67% 29.95 in 10.0 mi Calm Calm - N/A   Clear
4:35 AM 35.4 °F - 25.5 °F 67% 29.95 in 10.0 mi Calm Calm - N/A   Clear
4:55 AM 35.8 °F - 24.6 °F 64% 29.93 in 10.0 mi Calm Calm - N/A   Clear
5:15 AM 33.4 °F - 24.8 °F 71% 29.93 in 10.0 mi Calm Calm - N/A   Clear
5:35 AM 34.0 °F - 24.6 °F 69% 29.92 in 10.0 mi Calm Calm - N/A   Clear
5:55 AM 34.2 °F - 24.6 °F 68% 29.91 in 10.0 mi Calm Calm - N/A   Clear
6:15 AM 33.6 °F - 23.9 °F 68% 29.92 in 10.0 mi Calm Calm - N/A   Clear
6:35 AM 31.6 °F - 25.2 °F 77% 29.92 in 10.0 mi Calm Calm - N/A   Clear
6:55 AM 31.8 °F - 25.2 °F 76% 29.92 in 10.0 mi Calm Calm - N/A   Clear
7:15 AM 30.4 °F - 26.6 °F 86% 29.92 in 10.0 mi Calm Calm - N/A   Clear
7:35 AM 32.2 °F - 27.0 °F 81% 29.91 in 10.0 mi Calm Calm - N/A   Clear
7:55 AM 34.9 °F 32.0 °F 27.0 °F 73% 29.92 in 10.0 mi East 3.5 mph - N/A   Clear
8:15 AM 34.9 °F 32.0 °F 27.1 °F 73% 29.92 in 10.0 mi ENE 3.5 mph - N/A   Clear
8:35 AM 36.1 °F - 27.3 °F 70% 29.91 in 10.0 mi Calm Calm - N/A   Clear
8:55 AM 37.6 °F 35.1 °F 27.3 °F 66% 29.90 in 10.0 mi ENE 3.5 mph - N/A   Clear
9:15 AM 38.8 °F - 27.3 °F 63% 29.90 in 10.0 mi Calm Calm - N/A   Clear
9:35 AM 40.1 °F 38.0 °F 27.9 °F 62% 29.90 in 10.0 mi East 3.5 mph - N/A   Clear
9:55 AM 41.5 °F 39.6 °F 27.1 °F 57% 29.90 in 10.0 mi East 3.5 mph - N/A   Clear
10:14 AM 43.3 °F - 26.4 °F 51% 29.90 in 10.0 mi Calm Calm - N/A   Clear
10:35 AM 45.1 °F 43.7 °F 25.3 °F 46% 29.89 in 10.0 mi ESE 3.5 mph - N/A   Clear
10:55 AM 46.2 °F - 25.9 °F 45% 29.88 in 10.0 mi Calm Calm - N/A   Clear
11:15 AM 46.0 °F - 25.9 °F 45% 29.86 in 10.0 mi Calm Calm - N/A   Clear
11:35 AM 46.4 °F - 27.7 °F 48% 29.85 in 10.0 mi Calm Calm - N/A   Clear
11:55 AM 47.1 °F - 26.4 °F 45% 29.84 in 10.0 mi East 3.5 mph - N/A   Clear
12:15 PM 47.7 °F - 26.6 °F 44% 29.82 in 10.0 mi ENE 4.6 mph - N/A   Clear
12:35 PM 48.2 °F - 27.9 °F 45% 29.80 in 10.0 mi NNE 4.6 mph - N/A   Clear
12:55 PM 48.7 °F - 26.4 °F 42% 29.78 in 10.0 mi NNE 5.8 mph - N/A   Clear
1:15 PM 50.0 °F - 30.7 °F 48% 29.76 in 10.0 mi North 9.2 mph - N/A   Clear
1:35 PM 50.7 °F - 27.9 °F 41% 29.77 in 10.0 mi NE 4.6 mph - N/A   Clear
1:55 PM 52.2 °F - 27.0 °F 38% 29.75 in 10.0 mi East 8.1 mph - N/A   Scattered Clouds
2:15 PM 52.7 °F - 27.7 °F 38% 29.73 in 10.0 mi NE 5.8 mph - N/A   Mostly Cloudy
2:35 PM 53.6 °F - 25.0 °F 33% 29.72 in 10.0 mi East 8.1 mph - N/A   Scattered Clouds
2:55 PM 54.1 °F - 24.4 °F 32% 29.70 in 10.0 mi NE 6.9 mph - N/A   Mostly Cloudy
3:15 PM 55.0 °F - 25.3 °F 32% 29.68 in 10.0 mi ENE 9.2 mph - N/A   Scattered Clouds
3:35 PM 54.5 °F - 26.1 °F 33% 29.68 in 10.0 mi NE 6.9 mph - N/A   Clear
4:15 PM 53.6 °F - 26.2 °F 35% 29.65 in 10.0 mi ENE 8.1 mph - N/A   Overcast
4:35 PM 53.1 °F - 27.3 °F 37% 29.64 in 10.0 mi ENE 6.9 mph - N/A   Overcast
4:55 PM 53.2 °F - 28.8 °F 39% 29.63 in 10.0 mi ENE 5.8 mph - N/A   Overcast
5:15 PM 52.3 °F - 29.5 °F 42% 29.63 in 10.0 mi ENE 4.6 mph - N/A   Mostly Cloudy
5:35 PM 51.8 °F - 30.2 °F 44% 29.63 in 10.0 mi ENE 4.6 mph - N/A   Overcast
5:55 PM 50.9 °F - 31.3 °F 47% 29.63 in 10.0 mi ENE 6.9 mph - N/A   Overcast
6:15 PM 50.4 °F - 31.3 °F 48% 29.63 in 10.0 mi Calm Calm - N/A   Overcast
6:35 PM 50.0 °F - 31.8 °F 50% 29.63 in 10.0 mi NE 4.6 mph - N/A   Overcast
6:55 PM 49.3 °F - 31.8 °F 51% 29.62 in 10.0 mi East 4.6 mph - N/A   Overcast
7:15 PM 48.7 °F - 31.1 °F 51% 29.61 in 10.0 mi ENE 5.8 mph - N/A   Overcast
7:35 PM 48.0 °F - 31.1 °F 52% 29.60 in 10.0 mi NE 3.5 mph - N/A   Overcast
7:55 PM 47.3 °F - 32.0 °F 55% 29.59 in 10.0 mi NE 3.5 mph - N/A   Overcast
8:15 PM 46.4 °F 44.3 °F 32.2 °F 58% 29.58 in 10.0 mi North 4.6 mph - N/A   Overcast
8:35 PM 45.1 °F 42.0 °F 34.5 °F 66% 29.58 in 10.0 mi North 5.8 mph - N/A   Overcast
8:54 PM 44.4 °F 40.5 °F 35.6 °F 71% 29.58 in 10.0 mi North 6.9 mph - N/A   Overcast
9:15 PM 43.5 °F 40.1 °F 35.8 °F 74% 29.57 in 10.0 mi North 5.8 mph - N/A   Overcast
9:35 PM 42.6 °F 39.0 °F 35.1 °F 75% 29.57 in 10.0 mi North 5.8 mph - N/A   Overcast
9:55 PM 42.1 °F 37.7 °F 34.7 °F 75% 29.57 in 10.0 mi North 6.9 mph - N/A   Light Drizzle
10:15 PM 41.9 °F 40.0 °F 34.2 °F 74% 29.56 in 10.0 mi North 3.5 mph - N/A   Overcast
10:35 PM 41.5 °F 39.6 °F 34.0 °F 75% 29.55 in 10.0 mi North 3.5 mph - N/A   Overcast
10:55 PM 41.0 °F 39.0 °F 35.6 °F 81% 29.54 in 10.0 mi North 3.5 mph - N/A Rain Light Rain
11:15 PM 40.1 °F 38.0 °F 36.3 °F 86% 29.54 in 7.0 mi North 3.5 mph - N/A Rain Light Rain
11:35 PM 39.9 °F 36.7 °F 36.7 °F 88% 29.54 in 7.0 mi NNW 4.6 mph - N/A Rain Light Rain
11:55 PM 38.5 °F 34.1 °F 36.1 °F 91% 29.52 in 5.0 mi North 5.8 mph - N/A Rain Light Rain